Tracking 26218 objects as of 27-Sep-2022
HD Live streaming from Space Station
objects crossing your sky now

STARLINK-4462

Track STARLINK-4462 now!
10-day predictions
STARLINK-4462 is classified as:


NORAD ID: 53781
Int'l Code: 2022-111J
Perigee: 356.1 km
Apogee: 357.8 km
Inclination: 53.2 °
Period: 91.5 minutes
Semi major axis: 6727 km
RCS: Unknown
Launch date: September 11, 2022
Source: United States (US)
Launch site: AIR FORCE EASTERN TEST RANGE (AFETR)
aabbcc
Your satellite tracking list
Your tracking list is empty




NASA's NSSDC Master Catalog

Two Line Element Set (TLE):
1 53781U 22111J   22270.58334491  .00103174  00000-0  73090-3 0  9999
2 53781  53.2178 185.3227 0001301 135.7790  36.7868 15.73188680  2532
Source of the keplerian elements: AFSPC